TimeMST,TemperatureF,Dew PointF,Humidity,Sea Level PressureIn,VisibilityMPH,Wind Direction,Wind SpeedMPH,Gust SpeedMPH,PrecipitationIn,Events,Conditions,WindDirDegrees,DateUTC
12:53 AM,24.1,15.1,69,30.17,10.0,ENE,4.6,-,N/A,,Clear,70,2012-11-28 07:53:00
1:53 AM,27.0,19.0,72,30.15,10.0,South,11.5,-,N/A,,Clear,170,2012-11-28 08:53:00
2:53 AM,26.1,19.9,78,30.14,10.0,SSE,9.2,-,N/A,,Clear,160,2012-11-28 09:53:00
3:53 AM,28.0,19.9,72,30.13,10.0,ESE,6.9,-,N/A,,Clear,120,2012-11-28 10:53:00
4:53 AM,28.9,21.0,72,30.12,10.0,SE,4.6,-,N/A,,Clear,140,2012-11-28 11:53:00
5:53 AM,36.0,23.0,59,30.12,10.0,South,3.5,-,N/A,,Clear,170,2012-11-28 12:53:00
6:53 AM,36.0,25.0,64,30.12,10.0,SW,9.2,-,N/A,,Clear,230,2012-11-28 13:53:00
7:53 AM,37.0,26.1,65,30.13,10.0,SW,15.0,-,N/A,,Clear,220,2012-11-28 14:53:00
8:53 AM,39.0,27.0,62,30.12,10.0,SW,13.8,-,N/A,,Clear,220,2012-11-28 15:53:00
9:53 AM,39.9,27.0,60,30.10,10.0,SW,16.1,-,N/A,,Clear,220,2012-11-28 16:53:00
10:53 AM,41.0,27.0,57,30.10,10.0,SW,11.5,-,N/A,,Clear,230,2012-11-28 17:53:00
11:53 AM,41.0,28.0,60,30.09,10.0,SW,12.7,-,N/A,,Clear,230,2012-11-28 18:53:00
12:53 PM,44.1,28.9,55,30.06,10.0,SW,10.4,-,N/A,,Clear,220,2012-11-28 19:53:00
1:53 PM,45.0,30.0,56,30.03,10.0,SW,8.1,-,N/A,,Clear,230,2012-11-28 20:53:00
2:53 PM,46.0,28.0,50,30.04,10.0,SSW,3.5,-,N/A,,Clear,200,2012-11-28 21:53:00
3:53 PM,44.1,30.0,58,30.02,10.0,Calm,Calm,-,N/A,,Clear,0,2012-11-28 22:53:00
4:53 PM,33.1,27.0,78,30.04,10.0,South,3.5,-,N/A,,Clear,180,2012-11-28 23:53:00
5:53 PM,33.1,27.0,78,30.01,10.0,Calm,Calm,-,N/A,,Clear,0,2012-11-29 00:53:00
6:53 PM,28.9,24.1,82,30.01,10.0,South,3.5,-,N/A,,Clear,190,2012-11-29 01:53:00
7:53 PM,33.1,26.1,75,29.99,10.0,ESE,3.5,-,N/A,,Clear,110,2012-11-29 02:53:00
8:53 PM,34.0,24.1,67,29.96,10.0,SE,6.9,-,N/A,,Clear,140,2012-11-29 03:53:00
9:53 PM,37.9,23.0,55,29.93,10.0,SSW,13.8,-,N/A,,Clear,210,2012-11-29 04:53:00
10:53 PM,41.0,24.1,51,29.90,10.0,Variable,5.8,-,N/A,,Clear,0,2012-11-29 05:53:00
11:53 PM,44.1,25.0,47,29.85,10.0,SSW,19.6,28.8,N/A,,Clear,210,2012-11-29 06:53:00